Regional Weather Roundup
Issued by NWS Cleveland, OH

Home | Current Version | Previous Version | Text Only | Print | Product List | Glossary On
Versions: 1 2 3 4 5 6 7 8 9 10 11 12 13 14 15 16 17 18 19 20 21 22 23 24 25 26 27 28 29 30 31 32 33 34 35 36 37 38 39 40 41 42 43 44 45 46 47 48 49 50
000
ASUS41 KCLE 161912
RWRCLE
OHIO REGIONAL WEATHER ROUNDUP
NATIONAL WEATHER SERVICE WILMINGTON, OH
200 PM EST TUE JAN 16 2018

NOTE: "FAIR" INDICATES FEW OR NO CLOUDS BELOW 12,000 FEET WITH NO
SIGNIFICANT WEATHER AND/OR OBSTRUCTIONS TO VISIBILITY.

OHZ001>008-015>018-024>027-034-035-043-044-162000-
   NORTHWEST OHIO

CITY           SKY/WX    TMP DP  RH WIND       PRES   REMARKS
DEFIANCE       PTSUNNY    5  -3  69 SW9       30.45S WCI  -9
FINDLAY        CLOUDY     5  -3  69 W15       30.43S WCI -13
TOLEDO EXPRESS LGT SNOW   6   1  80 SW13      30.42F WCI -10
TOLEDO EXEC    LGT SNOW   6  -1  73 SW14      30.44S WCI -11
LIMA           FLURRIES   4  -2  76 W15       30.42S WCI -14
$$

OHZ009>014-019>023-028>033-038-089-162000-
   NORTHEAST OHIO

CITY           SKY/WX    TMP DP  RH WIND       PRES   REMARKS
CLE-HOPKINS    CLOUDY    13   4  67 SW12      30.42S WCI  -1
CLE-LAKEFRONT  CLOUDY    13   3  64 SW12      30.41R WCI  -1
CUY CO. ARPT   NOT AVBL
LORAIN-ELYRIA  CLOUDY    11   1  64 W13       30.41R WCI  -4
ASHTABULA      CLOUDY    14   8  77 VRB6      30.35S HAZE    WCI   5
AKRON-CANTON   FAIR      10   1  67 W10       30.36F WCI  -4
WOOSTER        FAIR      11   2  67 W9        30.38S WCI  -2
MANSFIELD      FAIR       9   1  70 SW9       30.36F WCI  -4
YOUNGSTOWN     CLOUDY    17   9  70 W12       30.32S WCI   4
$$

OHZ042-051>053-060>062-070>072-077>081-162000-
  SOUTHWEST OHIO

CITY           SKY/WX    TMP DP  RH WIND       PRES   REMARKS
CINC-COVINGTON FAIR       9   0  67 W9        30.46F WCI  -4
CINC-LUNKEN    FAIR      11   1  64 SW8       30.52F WCI  -1
HAMILTON       FAIR      12   0  58 W8        30.51F WCI   0
DAYTON         PTSUNNY    6   0  76 SW13      30.44S WCI -10
WRIGHT-PAT AFB PTSUNNY   10  -3  57 SW10      30.45F WCI  -4
DAYTON GENERAL FAIR       8  -1  66 W9        30.44F WCI  -5
WILMINGTON     FAIR       8   0  69 W12       30.43F WCI  -7
$$

OHZ036-037-039>041-045>050-054>059-063>069-073>076-082>088-162000-
  CENTRAL AND SOUTHEAST OHIO

CITY           SKY/WX    TMP DP  RH WIND       PRES   REMARKS
COLUMBUS       FAIR      10   2  69 SW8       30.44F WCI  -2
OSU AIRPORT    FAIR       8   1  73 SW7       30.43F WCI  -3
BOLTON FIELD   SUNNY      7   0  72 W7        30.44F WCI  -5
RICKENBACK AFB FAIR       8   0  71 W12       30.46S WCI  -7
NEWARK         FAIR      10   1  67 W9        30.42F WCI  -3
MARION         FAIR       8   0  69 W7        30.41F WCI  -3
LANCASTER      FAIR       8   1  73 W8        30.45S WCI  -4
ZANESVILLE     LGT SNOW  13   6  74 W10       30.41F WCI   0
NEW PHILLY     CLOUDY    13   6  74 W7        30.40F HAZE    WCI   3
$$




USA.gov is the U.S. government's official web portal to all federal, state and local government web resources and services.